When you browse on this site, cookies collect data to enhance your experience and personalize the content and advertising you see.
Visit our Privacy Policy to learn more. By continuing to use the site, you agree to this use of cookies and data.
  • In Czech Republic
  • List of Countries
  • For 7 days
  • Water Temperature
  • Satellite Maps
  • Weather Map
  • Weather Widgets
  • user-avatar
    Login

    Hourly Weather San Miguel de Tucumán

    Today, 21 January, Monday

    Time Temperature Precipitation Wind Pressure Humidity
    00:00 +23°C° 0 mm 1 mps 718 mmHg 86%
    01:00 +23°C° 0 mm 1 mps 718 mmHg 86%
    02:00 +22°C° 0 mm 1 mps 717 mmHg 90%
    03:00 +22°C° 0 mm 1 mps 717 mmHg 90%
    04:00 +20°C° 0 mm 0 mps 717 mmHg 89%
    05:00 +20°C° 0 mm 0 mps 717 mmHg 89%
    06:00 +23°C° 0 mm 1 mps 718 mmHg 84%
    07:00 +25°C° 0 mm 1 mps 718 mmHg 78%
    08:00 +27°C° 0 mm 1 mps 719 mmHg 76%
    09:00 +28°C° 0 mm 1 mps 719 mmHg 71%
    10:00 +30°C° 0 mm 1 mps 719 mmHg 66%
    11:00 +31°C° 0 mm 2 mps 719 mmHg 61%
    12:00 +32°C° 0 mm 2 mps 719 mmHg 59%
    13:00 +34°C° 0 mm 2 mps 719 mmHg 57%
    14:00 +35°C° 0 mm 2 mps 718 mmHg 55%
    15:00 +35°C° 0 mm 2 mps 718 mmHg 56%
    16:00 +34°C° 0 mm 1 mps 718 mmHg 56%
    17:00 +33°C° 0 mm 1 mps 717 mmHg 57%
    18:00 +32°C° 0 mm 1 mps 718 mmHg 63%
    19:00 +30°C° 0 mm 1 mps 718 mmHg 69%
    20:00 +28°C° 0 mm 1 mps 718 mmHg 75%
    21:00 +28°C° 0 mm 1 mps 718 mmHg 76%
    22:00 +27°C° 0 mm 1 mps 719 mmHg 77%
    23:00 +27°C° 0 mm 1 mps 719 mmHg 78%

    Tomorrow, 22 January, Tuesday

    Time Temperature Precipitation Wind Pressure Humidity
    00:00 +27°C° 0 mm 1 mps 719 mmHg 78%
    01:00 +27°C° 0 mm 1 mps 719 mmHg 78%
    02:00 +27°C° 0 mm 1 mps 718 mmHg 77%
    03:00 +26°C° 0 mm 1 mps 718 mmHg 79%
    04:00 +24°C° 0 mm 0 mps 718 mmHg 80%
    05:00 +24°C° 0 mm 0 mps 717 mmHg 81%
    06:00 +25°C° 0 mm 0 mps 718 mmHg 77%
    07:00 +26°C° 0 mm 0 mps 718 mmHg 73%
    08:00 +27°C° 0 mm 0 mps 718 mmHg 70%
    09:00 +31°C° 0 mm 1 mps 718 mmHg 62%
    10:00 +34°C° 0 mm 2 mps 718 mmHg 54%
    11:00 +37°C° 0 mm 2 mps 718 mmHg 46%
    12:00 +38°C° 0 mm 2 mps 717 mmHg 42%
    13:00 +39°C° 0 mm 3 mps 717 mmHg 39%
    14:00 +40°C° 0 mm 3 mps 717 mmHg 36%
    15:00 +40°C° 0 mm 3 mps 716 mmHg 37%
    16:00 +40°C° 0 mm 2 mps 716 mmHg 39%
    17:00 +39°C° 0 mm 2 mps 715 mmHg 40%
    18:00 +37°C° 0 mm 2 mps 715 mmHg 47%
    19:00 +34°C° 0 mm 1 mps 716 mmHg 54%
    20:00 +31°C° 0 mm 1 mps 716 mmHg 62%
    21:00 +31°C° 0 mm 1 mps 717 mmHg 62%
    22:00 +31°C° 0 mm 1 mps 717 mmHg 62%
    23:00 +30°C° 0 mm 1 mps 718 mmHg 62%

    Day after tomorrow, 23 January, Wednesday

    Time Temperature Precipitation Wind Pressure Humidity
    00:00 +30°C° 0 mm 1 mps 718 mmHg 62%
    01:00 +30°C° 0 mm 1 mps 717 mmHg 61%
    02:00 +29°C° 0 mm 1 mps 717 mmHg 61%
    03:00 +29°C° 0 mm 1 mps 717 mmHg 61%
    04:00 +29°C° 0 mm 1 mps 717 mmHg 61%
    05:00 +29°C° 0 mm 1 mps 717 mmHg 61%
    06:00 +29°C° 0 mm 1 mps 718 mmHg 60%
    07:00 +30°C° 0 mm 1 mps 718 mmHg 60%
    08:00 +29°C° 0 mm 0 mps 719 mmHg 60%
    09:00 +33°C° 0 mm 1 mps 719 mmHg 53%
    10:00 +35°C° 0 mm 1 mps 720 mmHg 47%
    11:00 +37°C° 0 mm 1 mps 720 mmHg 41%
    12:00 +39°C° 0 mm 2 mps 719 mmHg 39%
    13:00 +40°C° 0 mm 2 mps 719 mmHg 37%
    14:00 +42°C° 0 mm 3 mps 718 mmHg 35%
    15:00 +40°C° 0 mm 2 mps 717 mmHg 36%
    16:00 +40°C° 0 mm 2 mps 717 mmHg 37%
    17:00 +40°C° 0 mm 2 mps 716 mmHg 38%
    18:00 +37°C° 0 mm 2 mps 717 mmHg 44%
    19:00 +35°C° 0 mm 2 mps 717 mmHg 50%
    20:00 +32°C° 0 mm 1 mps 717 mmHg 55%
    21:00 +31°C° 0 mm 2 mps 718 mmHg 55%
    22:00 +31°C° 0 mm 2 mps 718 mmHg 56%
    23:00 +31°C° 0 mm 2 mps 719 mmHg 56%

    24 January, Thursday

    Time Temperature Precipitation Wind Pressure Humidity
    00:00 +30°C° 0 mm 2 mps 718 mmHg 57%
    01:00 +30°C° 0 mm 1 mps 718 mmHg 59%
    02:00 +29°C° 0 mm 1 mps 717 mmHg 60%
    03:00 +29°C° 0 mm 1 mps 717 mmHg 61%
    04:00 +29°C° 0 mm 1 mps 717 mmHg 61%
    05:00 +28°C° 0 mm 1 mps 717 mmHg 62%
    06:00 +29°C° 0 mm 1 mps 717 mmHg 61%
    07:00 +30°C° 0 mm 1 mps 718 mmHg 60%
    08:00 +29°C° 0 mm 0 mps 718 mmHg 59%
    09:00 +33°C° 0 mm 1 mps 718 mmHg 54%
    10:00 +34°C° 0 mm 1 mps 718 mmHg 50%
    11:00 +36°C° 0 mm 1 mps 718 mmHg 45%
    12:00 +38°C° 0.1 mm 2 mps 718 mmHg 42%
    13:00 +39°C° 0.1 mm 3 mps 717 mmHg 40%
    14:00 +40°C° 0.1 mm 3 mps 717 mmHg 37%
    15:00 +39°C° 0.3 mm 2 mps 716 mmHg 41%
    16:00 +39°C° 0.3 mm 2 mps 716 mmHg 46%
    17:00 +37°C° 0.3 mm 1 mps 715 mmHg 50%
    18:00 +35°C° 0.2 mm 1 mps 715 mmHg 54%
    19:00 +33°C° 0.2 mm 1 mps 716 mmHg 59%
    20:00 +31°C° 0.2 mm 2 mps 716 mmHg 63%
    21:00 +31°C° 0 mm 2 mps 716 mmHg 60%
    22:00 +31°C° 0 mm 2 mps 717 mmHg 56%
    23:00 +31°C° 0 mm 2 mps 717 mmHg 53%

    25 January, Friday

    Time Temperature Precipitation Wind Pressure Humidity
    00:00 +31°C° 0 mm 2 mps 717 mmHg 53%
    01:00 +30°C° 0 mm 2 mps 716 mmHg 54%
    02:00 +30°C° 0 mm 2 mps 715 mmHg 54%
    03:00 +29°C° 0 mm 1 mps 715 mmHg 55%
    04:00 +29°C° 0 mm 1 mps 714 mmHg 56%
    05:00 +28°C° 0 mm 1 mps 714 mmHg 56%
    06:00 +29°C° 0 mm 1 mps 714 mmHg 55%
    07:00 +31°C° 0 mm 1 mps 715 mmHg 53%
    08:00 +30°C° 0 mm 0 mps 715 mmHg 52%
    09:00 +34°C° 0 mm 1 mps 715 mmHg 46%
    10:00 +36°C° 0 mm 1 mps 716 mmHg 40%
    11:00 +39°C° 0 mm 2 mps 716 mmHg 34%
    12:00 +40°C° 0 mm 2 mps 716 mmHg 32%
    13:00 +42°C° 0 mm 2 mps 715 mmHg 29%
    14:00 +44°C° 0 mm 3 mps 715 mmHg 27%
    15:00 +42°C° 0 mm 2 mps 715 mmHg 28%
    16:00 +42°C° 0 mm 2 mps 714 mmHg 29%
    17:00 +42°C° 0 mm 2 mps 714 mmHg 30%
    18:00 +40°C° 0 mm 2 mps 714 mmHg 36%
    19:00 +37°C° 0 mm 2 mps 715 mmHg 41%
    20:00 +35°C° 0 mm 2 mps 715 mmHg 46%
    21:00 +34°C° 0 mm 2 mps 715 mmHg 47%
    22:00 +32°C° 0 mm 2 mps 716 mmHg 47%
    23:00 +32°C° 0 mm 2 mps 716 mmHg 48%

    26 January, Saturday

    Time Temperature Precipitation Wind Pressure Humidity
    00:00 +31°C° 0 mm 2 mps 716 mmHg 49%
    01:00 +31°C° 0 mm 2 mps 715 mmHg 49%
    02:00 +30°C° 0 mm 2 mps 715 mmHg 50%
    03:00 +30°C° 0 mm 1 mps 715 mmHg 50%
    04:00 +30°C° 0 mm 1 mps 715 mmHg 50%
    05:00 +29°C° 0 mm 1 mps 715 mmHg 50%
    06:00 +30°C° 0 mm 1 mps 716 mmHg 50%
    07:00 +31°C° 0 mm 1 mps 716 mmHg 51%
    08:00 +32°C° 0 mm 1 mps 717 mmHg 51%
    09:00 +34°C° 0.1 mm 1 mps 717 mmHg 46%
    10:00 +35°C° 0.1 mm 1 mps 718 mmHg 41%
    11:00 +37°C° 0.1 mm 1 mps 718 mmHg 36%
    12:00 +37°C° 0.1 mm 1 mps 718 mmHg 35%
    13:00 +39°C° 0.1 mm 1 mps 717 mmHg 34%
    14:00 +40°C° 0.1 mm 1 mps 717 mmHg 33%
    15:00 +39°C° 0 mm 1 mps 716 mmHg 36%
    16:00 +39°C° 0 mm 1 mps 716 mmHg 38%
    17:00 +37°C° 0 mm 1 mps 716 mmHg 41%
    18:00 +35°C° 0.4 mm 1 mps 716 mmHg 50%
    19:00 +32°C° 0.4 mm 1 mps 716 mmHg 59%
    20:00 +29°C° 0.4 mm 2 mps 717 mmHg 68%
    21:00 +29°C° 0.9 mm 1 mps 717 mmHg 71%
    22:00 +28°C° 0.9 mm 1 mps 718 mmHg 73%
    23:00 +28°C° 0.9 mm 1 mps 718 mmHg 76%
    Show more